Ireland, IN

7:52 AM EDT on August 27, 2016 (GMT -0400)
Huntingburg

Weather History for KHNB - January, 2013

Change the Weather History Date:

Sunday, January 6, 2013

  Actual Average Record
Temperature  
Mean Temperature 30 °F -  
Max Temperature 37 °F 39 °F 62 °F (1998)
Min Temperature 24 °F 25 °F -5 °F (2014)
Degree Days  
Heating Degree Days 34    
Moisture  
Dew Point 26 °F    
Average Humidity 75    
Maximum Humidity 87    
Minimum Humidity 64    
Precipitation  
Precipitation 0.00 in - - ()
Sea Level Pressure  
Sea Level Pressure 30.22 in    
Wind  
Wind Speed 10 mph (WSW)    
Max Wind Speed 17 mph    
Max Gust Speed 22 mph    
Visibility 10 miles    
Events      
Averages and records for this station are not official NWS values.
T = Trace of Precipitation, MM = Missing Value Source: NWS Daily Summary

Daily Weather History Graph

Daily Weather History Graph

Search for Another Location

Airport or City:

Trip Planner

Search our weather history database for the weather conditions in past years. The results will help you decide how hot, cold, wet, or windy it might be!

Date:

Astronomy

Jan. 06, 2013 Rise Set
Actual Time 8:04 AM EST 5:42 PM EST
Civil Twilight 7:35 AM EST 6:12 PM EST
Nautical Twilight 7:02 AM EST 6:45 PM EST
Astronomical Twilight 6:30 AM EST 7:17 PM EST
Moon 2:20 AM EST (1/6) 1:08 PM EST (1/6)
Length of Visible Light 10h 36m
Length of Day
9h 38m
Waning Crescent, 33% of the Moon is Illuminated
Jan 6
Waning Crescent
Jan 11
New
Jan 18
First Quarter
Jan 26
Full
Feb 3
Last Quarter

Hourly Weather History & Observations

Time (EST) Temp. Windchill Dew Point Humidity Pressure Visibility Wind Dir Wind Speed Gust Speed Precip Events Conditions
12:15 AM 35.6 °F 29.2 °F 28.4 °F 75% 30.20 in 10.0 mi SW 8.1 mph - N/A   Overcast
12:35 AM 35.6 °F 28.0 °F 28.4 °F 75% 30.18 in 10.0 mi SSW 10.4 mph - N/A   Overcast
12:55 AM 35.6 °F 28.0 °F 28.4 °F 75% 30.17 in 10.0 mi SSW 10.4 mph - N/A   Mostly Cloudy
1:15 AM 37.4 °F 30.3 °F 28.4 °F 70% 30.17 in 10.0 mi SSW 10.4 mph - N/A   Overcast
1:35 AM 35.6 °F 27.5 °F 28.4 °F 75% 30.17 in 10.0 mi SSW 11.5 mph - N/A   Overcast
1:55 AM 35.6 °F 28.0 °F 28.4 °F 75% 30.16 in 10.0 mi SSW 10.4 mph - N/A   Overcast
2:15 AM 37.4 °F 29.8 °F 28.4 °F 70% 30.16 in 10.0 mi SSW 11.5 mph - N/A   Overcast
2:35 AM 35.6 °F 27.5 °F 28.4 °F 75% 30.16 in 10.0 mi SSW 11.5 mph - N/A   Overcast
2:55 AM 35.6 °F 27.5 °F 28.4 °F 75% 30.15 in 10.0 mi SSW 11.5 mph - N/A   Overcast
3:15 AM 35.6 °F 28.0 °F 30.2 °F 81% 30.15 in 10.0 mi SSW 10.4 mph - N/A   Overcast
3:35 AM 35.6 °F 29.2 °F 28.4 °F 75% 30.15 in 10.0 mi SSW 8.1 mph - N/A   Overcast
3:55 AM 35.6 °F 28.6 °F 28.4 °F 75% 30.14 in 10.0 mi SSW 9.2 mph - N/A   Overcast
4:15 AM 35.6 °F 29.2 °F 28.4 °F 75% 30.13 in 10.0 mi SSW 8.1 mph - N/A   Overcast
4:35 AM 35.6 °F 29.9 °F 30.2 °F 81% 30.13 in 10.0 mi SSW 6.9 mph - N/A   Overcast
4:55 AM 35.6 °F 28.6 °F 30.2 °F 81% 30.12 in 10.0 mi SSW 9.2 mph - N/A   Overcast
5:15 AM 35.6 °F 28.6 °F 30.2 °F 81% 30.12 in 10.0 mi SSW 9.2 mph - N/A   Overcast
5:35 AM 35.6 °F 28.6 °F 30.2 °F 81% 30.11 in 10.0 mi SSW 9.2 mph - N/A   Overcast
5:55 AM 35.6 °F 28.6 °F 30.2 °F 81% 30.11 in 10.0 mi South 9.2 mph - N/A   Overcast
6:15 AM 35.6 °F 28.6 °F 30.2 °F 81% 30.11 in 7.0 mi South 9.2 mph - N/A   Overcast
6:35 AM 35.6 °F 28.0 °F 30.2 °F 81% 30.11 in 9.0 mi SSW 10.4 mph - N/A   Mostly Cloudy
6:55 AM 35.6 °F 29.2 °F 30.2 °F 81% 30.11 in 10.0 mi SSW 8.1 mph - N/A   Mostly Cloudy
7:15 AM 35.6 °F 28.0 °F 30.2 °F 81% 30.12 in 10.0 mi SSW 10.4 mph - N/A   Overcast
7:35 AM 35.6 °F 27.5 °F 30.2 °F 81% 30.12 in 9.0 mi SSW 11.5 mph - N/A   Overcast
7:55 AM 35.6 °F 28.0 °F 30.2 °F 81% 30.13 in 9.0 mi SSW 10.4 mph - N/A   Overcast
8:15 AM 35.6 °F 28.6 °F 30.2 °F 81% 30.13 in 7.0 mi SSW 9.2 mph - N/A   Overcast
8:55 AM 35.6 °F 27.5 °F 30.2 °F 81% 30.14 in 6.0 mi SW 11.5 mph - N/A   Overcast
9:15 AM 35.6 °F 28.0 °F 30.2 °F 81% 30.15 in 7.0 mi SW 10.4 mph - N/A   Overcast
9:35 AM 35.6 °F 28.6 °F 32.0 °F 87% 30.15 in 7.0 mi SW 9.2 mph - N/A   Overcast
9:55 AM 35.6 °F 27.5 °F 32.0 °F 87% 30.15 in 8.0 mi SW 11.5 mph - N/A   Overcast
10:15 AM 37.4 °F 29.8 °F 32.0 °F 81% 30.15 in 8.0 mi SW 11.5 mph - N/A   Overcast
10:35 AM 37.4 °F 29.8 °F 32.0 °F 81% 30.16 in 10.0 mi WSW 11.5 mph - N/A   Overcast
10:55 AM 37.4 °F 29.3 °F 32.0 °F 81% 30.16 in 10.0 mi West 12.7 mph - N/A   Overcast
11:15 AM 37.4 °F 29.3 °F 30.2 °F 75% 30.16 in 10.0 mi West 12.7 mph - N/A   Overcast
11:35 AM 37.4 °F 27.8 °F 30.2 °F 75% 30.16 in 10.0 mi West 17.3 mph 21.9 mph N/A   Overcast
11:55 AM 37.4 °F 28.2 °F 28.4 °F 70% 30.17 in 10.0 mi West 16.1 mph - N/A   Overcast
12:15 PM 35.6 °F 27.1 °F 26.6 °F 70% 30.17 in 10.0 mi WNW 12.7 mph - N/A   Overcast
12:35 PM 35.6 °F 28.6 °F 26.6 °F 70% 30.17 in 10.0 mi WNW 9.2 mph - N/A   Overcast
12:55 PM 35.6 °F 26.6 °F 26.6 °F 70% 30.17 in 10.0 mi WNW 13.8 mph - N/A   Overcast
1:15 PM 35.6 °F 27.1 °F 26.6 °F 70% 30.17 in 10.0 mi West 12.7 mph - N/A   Overcast
1:35 PM 35.6 °F 26.6 °F 26.6 °F 70% 30.17 in 10.0 mi West 13.8 mph - N/A   Overcast
1:55 PM 35.6 °F 26.6 °F 26.6 °F 70% 30.18 in 10.0 mi WNW 13.8 mph - N/A   Overcast
2:15 PM 35.6 °F 26.2 °F 26.6 °F 70% 30.19 in 10.0 mi West 15.0 mph - N/A   Overcast
2:35 PM 33.8 °F 25.3 °F 26.6 °F 75% 30.20 in 10.0 mi WNW 11.5 mph - N/A   Overcast
2:55 PM 33.8 °F 23.9 °F 24.8 °F 70% 30.22 in 10.0 mi WNW 15.0 mph 20.7 mph N/A   Overcast
3:15 PM 33.8 °F 24.3 °F 24.8 °F 70% 30.23 in 10.0 mi NW 13.8 mph - N/A   Overcast
3:35 PM 33.8 °F 23.9 °F 24.8 °F 70% 30.24 in 10.0 mi NW 15.0 mph 20.7 mph N/A   Overcast
3:55 PM 33.8 °F 24.8 °F 24.8 °F 70% 30.26 in 10.0 mi NW 12.7 mph 19.6 mph N/A   Overcast
4:15 PM 33.8 °F 25.3 °F 24.8 °F 70% 30.27 in 10.0 mi NW 11.5 mph - N/A   Overcast
4:35 PM 32.0 °F 22.5 °F 23.0 °F 69% 30.28 in 9.0 mi NW 12.7 mph - N/A   Overcast
4:55 PM 32.0 °F 22.5 °F 21.2 °F 64% 30.30 in 8.0 mi WNW 12.7 mph 18.4 mph N/A   Overcast
5:35 PM 30.2 °F 20.8 °F 21.2 °F 69% 30.32 in 9.0 mi NW 11.5 mph - N/A   Mostly Cloudy
5:55 PM 30.2 °F 21.3 °F 21.2 °F 69% 30.32 in 9.0 mi NW 10.4 mph - N/A   Overcast
6:15 PM 30.2 °F 21.9 °F 21.2 °F 69% 30.32 in 10.0 mi WNW 9.2 mph - N/A   Mostly Cloudy
6:35 PM 30.2 °F 22.6 °F 21.2 °F 69% 30.35 in 10.0 mi WNW 8.1 mph - N/A   Scattered Clouds
7:15 PM 30.2 °F 24.3 °F 21.2 °F 69% 30.36 in 10.0 mi WNW 5.8 mph - N/A   Overcast
7:35 PM 28.4 °F 23.3 °F 21.2 °F 74% 30.36 in 10.0 mi NW 4.6 mph - N/A   Scattered Clouds
7:55 PM 28.4 °F 23.3 °F 21.2 °F 74% 30.36 in 10.0 mi NW 4.6 mph - N/A   Scattered Clouds
8:15 PM 28.4 °F 23.3 °F 21.2 °F 74% 30.37 in 10.0 mi NW 4.6 mph - N/A   Overcast
8:35 PM 28.4 °F 23.3 °F 21.2 °F 74% 30.37 in 10.0 mi NW 4.6 mph - N/A   Overcast
8:55 PM 28.4 °F 22.2 °F 21.2 °F 74% 30.38 in 10.0 mi WNW 5.8 mph - N/A   Scattered Clouds
9:15 PM 28.4 °F 23.3 °F 21.2 °F 74% 30.39 in 10.0 mi NW 4.6 mph - N/A   Clear
9:35 PM 26.6 °F 21.2 °F 19.4 °F 74% 30.39 in 10.0 mi West 4.6 mph - N/A   Clear
9:55 PM 24.8 °F 20.5 °F 19.4 °F 80% 30.40 in 10.0 mi West 3.5 mph - N/A   Clear
10:15 PM 26.6 °F 22.6 °F 19.4 °F 74% 30.40 in 10.0 mi WNW 3.5 mph - N/A   Clear
10:55 PM 26.6 °F - 19.4 °F 74% 30.40 in 10.0 mi Calm Calm - N/A   Clear
11:15 PM 24.8 °F - 19.4 °F 80% 30.40 in 10.0 mi Calm Calm - N/A   Clear
11:35 PM 24.8 °F - 19.4 °F 80% 30.41 in 9.0 mi Calm Calm - N/A   Mostly Cloudy
11:55 PM 24.8 °F - 19.4 °F 80% 30.42 in 9.0 mi Calm Calm - N/A   Overcast